Tracking 19280 objects as of 15-Nov-2018
HD Live streaming from Space Station
objects crossing your sky now

FLOCK 3P 60

Track FLOCK 3P 60 now!
10-day predictions
FLOCK 3P 60 is classified as:


NORAD ID: 41976
Int'l Code: 2017-008AE
Perigee: 493.0 km
Apogee: 504.0 km
Inclination: 97.4 °
Period: 94.4 minutes
Semi major axis: 6869 km
RCS: Unknown
Launch date: February 15, 2017
Source: United States (US)
Launch site: SRIHARIKOTA (SRI)
aabbcc
Your satellite tracking list
Your tracking list is empty




NASA's NSSDC Master Catalog

Two Line Element Set (TLE):
1 41976U 17008AE  18318.16391396  .00001299  00000-0  55229-4 0  9990
2 41976  97.4350  22.1536 0007984 174.7618 185.3705 15.24810009 96136
Source of the keplerian elements: AFSPC